RH
40 43 47 51 54 59 54 56 55 53 59 60 60 59 56 56 57 64 70 71 72 74 78 78 79 81 88 98 99 93 98 99 99 92 75 68 70 65 62 64 61 57 64
44 50 51 54 55 54 58 52 53 61 58 60 62 62 60 60 63 67 66 67 73 71 69 74 72 77 82 93 97 97 98 98 96 94 78 77 71 74 74 75 54 45 54
42 45 53 59 65 67 66 66 62 62 59 53 58 62 63 63 64 64 71 70 67 66 69 72 73 73 82 89 96 99 98 98 96 77 83 68 82 68 73 65 75 78 52
38 45 55 54 61 59 64 63 62 64 61 61 59 57 63 62 62 68 70 69 69 71 70 66 68 71 80 90 98 98 97 98 90 75 68 74 72 72 61 70 76 72 55
44 44 52 54 51 55 58 59 59 63 60 60 57 58 61 59 60 76 73 67 77 69 65 66 71 84 96 92 92 95 96 98 87 65 64 62 67 58 65 67 82 65 69
48 49 54 59 57 60 59 59 61 59 61 60 59 59 62 48 96 96 91 71 70 65 67 64 75 86 95 96 92 89 90 96 86 66 56 64 79 63 61 63 85 59 89
53 55 58 63 63 66 64 64 62 63 64 64 64 70 67 72 95 96 97 76 70 73 72 76 69 72 88 85 92 93 88 84 78 69 68 68 74 69 72 73 85 67 85
55 56 60 64 64 66 69 69 72 67 68 76 74 70 71 78 95 98 94 78 81 77 72 74 78 79 82 77 72 70 79 65 75 56 56 70 69 70 70 70 79 81 79
53 60 61 63 66 67 69 73 74 77 83 80 77 74 78 83 99 99 92 59 82 80 75 71 76 76 94 89 69 72 75 80 79 88 86 83 80 77 65 55 58 59 64
51 58 61 65 68 69 74 83 83 80 84 65 79 78 88 81 99 99 88 46 68 66 81 71 87 78 90 89 71 70 78 74 64 69 62 72 72 71 80 65 56 59 63
48 53 62 67 73 75 85 88 87 82 84 85 80 77 78 81 85 97 97 56 53 48 75 68 63 85 88 88 88 66 75 70 73 71 51 52 59 58 53 56 64 59 67
72 69 70 71 63 74 86 88 85 88 88 84 81 69 63 74 92 94 97 96 94 66 73 67 67 89 94 91 74 91 90 80 54 56 47 48 49 50 50 52 79 67 58
87 92 88 85 74 78 87 88 84 81 72 69 60 48 48 49 58 92 94 94 92 73 68 85 88 91 92 85 90 90 96 53 47 51 46 46 46 50 71 65 72 66 71
95 93 90 96 89 85 79 67 66 62 56 54 49 41 41 41 47 55 55 66 91 80 92 68 74 80 98 70 66 67 50 43 46 52 64 55 43 50 53 68 63 61 61
97 98 98 97 85 82 84 70 67 66 56 45 38 35 36 44 66 88 83 64 65 80 86 76 70 67 69 82 78 72 49 46 46 47 43 44 42 44 46 47 72 72 72
98 99 98 98 93 89 89 97 97 95 93 93 90 57 68 87 98 99 100 100 99 100 83 83 86 94 92 84 89 91 86 74 49 46 43 43 47 46 50 47 49 65 73
97 98 95 98 94 90 77 65 87 97 95 96 94 98 92 90 95 96 98 100 100 92 66 73 78 85 91 93 96 96 88 83 76 62 78 76 67 76 71 60 70 67 54
97 100 90 95 93 91 72 63 57 61 62 64 86 78 98 94 92 92 92 94 60 61 50 65 67 72 78 79 82 90 94 97 99 94 85 77 69 72 71 80 64 69 58
99 98 94 96 95 93 73 66 63 62 61 58 58 71 83 96 91 88 88 46 48 46 45 52 64 67 70 71 77 84 91 95 97 98 98 93 86 77 66 76 64 75 76
99 96 95 97 92 78 58 54 49 53 60 55 50 48 49 64 54 50 47 46 45 39 40 44 51 62 69 69 70 72 77 80 92 96 97 97 98 96 83 72 76 67 60
98 99 95 96 92 91 72 63 52 52 49 50 55 66 98 62 50 42 42 46 42 42 44 45 42 52 60 60 66 64 66 72 74 78 91 94 95 97 94 92 81 83 71
99 99 97 96 98 95 83 63 51 45 45 49 51 59 88 52 48 49 52 50 51 54 52 57 57 54 56 54 58 57 58 65 66 66 67 70 85 92 94 95 95 93 83
97 98 97 98 98 96 96 86 62 46 44 44 48 50 47 56 59 57 56 55 57 58 56 55 59 60 59 59 57 60 61 74 67 60 60 60 60 70 83 92 91 94 97
96 96 96 97 96 95 95 95 78 68 63 55 61 64 65 60 57 65 61 58 57 55 52 53 56 59 61 60 58 58 61 64 61 56 61 61 59 59 55 66 80 88 93
91 90 88 90 87 84 73 63 62 57 54 51 56 58 55 52 53 56 55 58 57 58 59 59 58 61 60 62 64 71 92 98 77 88 60 60 61 64 58 54 53 57 70
76 74 77 73 63 57 58 59 52 56 56 56 58 53 54 52 51 50 52 52 52 53 55 52 56 58 57 53 71 88 92 98 83 98 79 74 68 60 54 54 54 49 51
Wind_Speed
17 16 15 14 14 12 12 11 11 10 8 8 9 8 8 7 7 7 8 10 9 10 10 10 10 8 5 3 4 4 5 3 4 1 5 8 8 8 7 8 9 8 8
15 14 14 13 13 13 12 12 11 10 10 10 9 9 7 7 7 7 10 10 10 11 10 11 11 7 8 6 5 7 6 3 5 7 9 7 8 9 8 7 6 6 8
16 15 13 13 13 12 12 11 10 10 11 11 9 8 7 7 7 8 8 9 11 10 10 10 9 9 6 1 6 7 6 4 5 6 7 7 7 8 8 7 4 6 5
16 15 15 15 14 14 11 11 11 10 11 10 9 7 7 5 7 7 8 9 9 8 9 8 8 10 9 6 8 8 7 4 6 6 7 7 7 9 8 8 6 6 7
14 15 15 14 14 13 13 12 12 11 11 10 9 8 4 5 6 7 7 7 6 8 9 10 10 9 7 10 7 8 8 4 4 7 7 7 6 9 8 6 5 8 6
13 14 12 13 13 12 12 12 11 11 10 9 8 5 1 2 9 7 6 6 5 5 7 7 5 9 10 9 14 11 7 3 4 8 9 8 7 7 5 6 4 8 5
12 13 12 12 13 12 11 10 11 10 10 8 7 5 3 6 10 8 7 5 4 8 8 7 5 7 9 9 10 12 8 3 3 5 6 10 8 8 7 7 4 6 2
12 13 13 13 13 12 11 10 10 10 9 6 7 5 5 6 9 10 9 6 6 6 6 5 6 6 8 9 10 9 3 2 6 7 3 10 8 7 8 4 6 4 4
14 13 13 14 13 13 12 11 10 9 9 8 6 6 7 5 9 11 11 2 7 5 5 7 6 6 5 5 7 8 6 3 5 9 13 11 15 12 8 7 6 5 4
14 13 12 13 13 13 12 11 9 11 10 9 7 7 6 6 8 9 10 5 5 4 3 3 11 8 2 4 3 7 5 4 4 4 7 9 10 9 6 6 8 6 5
13 11 11 12 12 12 13 12 12 11 9 10 9 7 6 5 6 9 13 5 6 3 3 2 4 6 6 6 8 5 4 7 5 4 6 6 7 7 7 6 5 5 5
6 8 12 14 12 15 17 13 12 13 12 11 10 9 8 8 4 7 6 5 6 5 2 2 6 7 6 8 5 9 9 8 7 7 7 8 7 7 7 7 5 3 3
8 6 6 6 12 15 15 14 13 13 12 11 10 9 9 8 8 9 6 3 2 1 5 4 7 6 4 7 6 4 6 6 6 6 5 7 7 7 4 5 1 3 2
6 7 12 9 10 11 9 13 12 12 12 11 9 10 9 8 6 5 3 7 6 4 6 4 3 2 4 7 7 5 8 2 3 2 3 2 5 7 5 5 5 5 6
2 4 7 9 12 11 11 4 8 14 8 8 8 8 9 10 6 5 3 4 4 5 2 3 2 1 2 0 2 3 5 4 4 2 2 5 4 6 6 7 4 5 4
7 5 5 3 6 5 8 8 28 18 23 24 19 8 9 13 13 10 7 3 5 2 3 3 3 3 2 3 4 4 3 3 1 1 3 4 4 5 5 5 4 4 2
11 8 8 7 5 5 7 8 13 8 21 14 9 13 10 10 11 8 6 1 7 5 4 3 3 3 4 3 4 5 4 4 4 2 3 3 3 3 1 4 3 4 6
10 12 10 8 9 8 8 8 10 10 11 10 2 3 5 3 9 8 9 7 6 4 5 2 1 3 3 3 3 4 4 4 4 3 3 4 7 4 6 5 5 5 7
8 8 8 7 7 9 9 11 9 8 8 9 10 7 5 3 2 4 6 3 5 5 4 5 1 1 3 2 4 3 3 4 5 4 3 4 6 6 5 3 6 6 6
7 13 12 9 8 10 11 11 10 9 8 8 7 7 7 5 6 5 3 3 5 3 6 2 4 1 3 2 3 2 2 3 4 4 4 5 5 6 8 8 3 6 8
6 7 12 10 9 7 6 7 9 8 8 7 6 3 6 5 5 4 6 4 4 4 6 4 4 4 1 1 3 2 2 3 3 2 3 4 5 5 5 7 9 5 8
4 8 8 7 2 3 5 5 8 8 9 8 6 4 5 1 4 3 4 6 6 7 6 3 3 5 5 4 3 4 4 3 4 4 4 4 3 4 5 5 5 8 7
8 8 11 9 9 10 7 5 4 7 8 9 9 6 4 6 3 4 4 6 7 5 4 2 3 3 4 4 4 5 5 4 4 6 7 7 6 4 4 5 5 6 6
10 9 7 11 9 9 6 9 5 5 7 6 8 5 7 6 6 5 4 6 5 4 3 2 3 4 3 3 2 2 4 5 7 7 8 9 8 9 8 7 6 7 6
8 8 7 9 7 9 10 10 7 7 8 7 7 7 7 6 7 5 6 4 5 5 5 5 5 5 5 6 7 9 5 2 6 7 8 10 12 13 12 11 12 10 10
9 9 7 7 7 8 7 7 8 8 8 8 6 6 5 6 6 5 5 4 3 4 1 1 2 2 4 3 8 6 3 3 5 4 7 9 11 11 11 12 16 13 14
Wind_Direction
201 197 202 204 208 212 223 226 232 239 244 246 255 265 275 286 292 290 301 295 311 316 314 313 310 323 322 120 162 187 120 117 123 110 159 122 134 143 127 111 159 138 135
196 198 195 198 203 206 211 218 219 225 231 236 245 257 269 280 284 310 308 330 314 305 321 329 339 334 342 155 164 136 127 86 131 145 127 150 153 124 140 157 169 139 146
190 199 195 197 199 207 204 212 220 223 231 241 233 241 260 274 309 309 306 328 321 326 333 341 329 332 347 140 129 127 126 131 134 156 144 158 147 150 159 172 188 135 131
187 192 200 198 198 202 205 205 215 225 230 232 238 243 254 297 297 344 338 316 327 338 333 334 355 351 344 86 112 124 131 137 166 142 145 157 157 164 165 152 169 180 139
191 195 197 202 202 202 199 209 215 214 220 227 225 224 234 273 36 359 331 318 6 346 353 356 26 4 3 112 127 129 131 154 184 145 155 170 158 173 156 166 166 164 142
189 198 197 195 199 201 203 201 205 208 213 209 216 225 137 19 30 15 323 332 11 1 358 13 6 50 63 67 103 124 135 164 262 145 156 183 160 203 156 145 163 163 169
202 197 198 193 197 189 190 195 199 202 200 186 189 127 123 62 5 349 332 303 4 10 27 2 20 74 84 107 105 108 106 298 10 275 157 168 170 194 167 156 213 184 115
220 203 198 194 193 183 188 192 188 188 177 151 135 156 123 61 5 344 331 279 82 47 14 18 67 87 115 137 140 130 135 70 36 316 178 134 152 175 157 174 122 100 126
216 211 202 192 189 185 190 186 174 153 130 132 137 163 112 74 12 2 336 124 101 70 25 32 356 106 142 176 143 140 146 75 36 32 55 69 105 114 165 149 161 194 174
226 209 199 187 186 182 174 153 141 140 132 140 133 112 118 107 36 17 2 315 113 94 65 33 46 53 19 277 173 160 159 122 119 111 104 93 115 145 228 207 167 198 168
237 205 189 182 171 160 136 130 139 148 146 120 137 144 122 97 69 32 15 15 1 23 101 38 83 51 23 353 326 156 152 152 166 147 149 159 166 167 193 227 219 204 193
287 182 193 180 168 148 138 141 152 127 131 144 157 170 145 129 106 93 68 42 358 347 37 15 99 89 64 31 16 111 141 187 167 187 187 167 177 181 215 214 198 249 51
248 161 166 161 159 156 145 149 143 147 155 165 174 165 148 148 137 146 167 172 215 77 22 57 104 117 130 112 102 150 199 206 185 212 208 173 179 170 143 166 165 234 175
196 187 171 184 179 158 154 152 165 169 169 162 172 173 142 140 109 60 23 175 183 133 140 113 46 21 38 99 152 194 243 261 312 230 120 132 142 134 163 159 205 213 218
162 216 243 136 163 156 79 85 46 5 328 157 166 155 153 136 109 94 35 21 17 69 324 108 179 221 224 189 312 295 224 164 207 208 258 166 183 169 191 177 210 205 245
185 160 156 189 115 150 104 83 79 64 2 33 17 82 59 98 132 137 130 63 351 335 134 100 84 63 45 317 327 352 6 342 261 341 211 197 194 219 191 172 208 266 232
189 176 159 164 166 156 119 129 107 62 96 47 26 70 78 131 118 121 121 67 279 295 129 104 103 75 70 50 24 18 356 350 324 279 343 337 336 66 19 193 220 266 249
222 164 170 171 165 156 153 146 140 156 143 134 173 107 95 166 122 150 164 157 168 209 111 104 123 110 93 77 53 31 10 9 355 314 299 290 292 192 193 222 219 234 225
220 178 161 147 141 148 168 155 167 170 163 134 134 148 171 238 101 259 217 183 122 129 122 130 117 54 62 47 69 77 41 16 358 358 318 295 303 309 253 236 228 205 249
215 188 156 160 155 160 165 167 164 155 134 149 148 128 146 161 161 157 146 118 130 104 100 40 106 96 48 8 40 29 54 42 22 11 15 6 354 339 299 278 240 252 214
188 189 165 153 171 156 175 163 155 143 142 136 116 45 13 309 113 133 128 115 78 90 71 44 13 60 260 317 352 340 12 22 7 19 17 360 351 348 336 329 294 303 276
129 149 143 128 133 157 142 147 146 154 140 127 114 125 325 198 113 121 99 91 81 63 53 58 354 12 34 338 323 319 301 22 339 338 333 333 349 332 326 324 315 318 290
93 94 102 101 98 77 64 26 2 141 130 133 140 144 147 91 113 118 132 104 84 90 84 36 54 36 37 9 6 9 21 30 341 338 328 326 307 290 295 290 283 292 302
88 93 100 113 118 108 131 117 200 113 122 127 105 133 132 152 124 132 102 88 100 94 83 46 50 39 21 6 2 63 63 26 330 322 331 317 309 306 298 269 256 261 277
123 115 127 117 152 128 142 140 161 157 120 135 127 132 149 145 126 119 96 80 74 64 43 17 35 25 16 333 68 81 65 9 325 337 302 315 301 296 286 285 281 269 259
119 123 139 127 114 148 148 150 133 119 124 120 146 141 125 111 112 111 97 103 110 119 89 82 48 312 312 335 55 23 356 319 310 333 303 287 288 290 285 280 282 282 270